Flag for U.S.A. Weather past 2 weeks in Panama City, Florida, U.S.A.

Now
85 °F

Sunny.


Feels Like: 91 °F
Forecast: 76 / 90 °F
Wind: 8 mph from East

Location: Tyndall Air Force Base

Current Time: Aug 27, 2014 at 10:53:29 AM

Latest Report: Aug 27, 2014 at 9:58 AM


Visibility: 10 mi

Pressure: 30.06 "Hg

Humidity: 65%

Dew point: 72 °F

Location of Panama CityLocation

Historic Weather in Panama City — Graph

°F

Panama City temperature yesterday

Maximum temperature yesterday: 91 °F (at 2:58 PM)
Minimum temperature yesterday: 72 °F (at 5:58 AM)
Average temperature yesterday: 81 °F

Past Weeks' High & Low Weather Summary

 TemperatureHumidityPressure
High97 °F (Aug 24, 12:58 PM)100% (Aug 13, 4:03 AM)30.17 "Hg (Aug 13, 4:03 AM)
Low72 °F (Aug 26, 5:58 AM)50% (Aug 24, 1:58 PM)29.81 "Hg (Aug 24, 3:58 PM)
Average83 °F80%30.00 "Hg
* Reported Aug 12 8:58 AM — Aug 27 8:58 AM, Panama City, Weather by CustomWeather, © 2014

Note: Actual official high and low records may vary slightly from our data, if they occured in-between our weather recording intervals... More about our weather records

Advertising

Panama City weather history for previous 24 hours

 ConditionsComfort  
Time TempWeatherWind HumidityBarometerVisibility
8:58 AM
Aug 27
81 °FSunny.8 mph75%30.06 "Hg10 mi
7:58 AM77 °FSunny.5 mph82%30.05 "Hg10 mi
6:58 AM74 °FSunny.6 mph95%30.04 "Hg10 mi
5:58 AM74 °FClear.6 mph93%30.02 "Hg10 mi
4:58 AM75 °FClear.5 mph90%30.00 "Hg10 mi
3:58 AM75 °FClear.2 mph87%29.99 "Hg10 mi
2:58 AM76 °FClear.5 mph85%29.99 "Hg10 mi
1:58 AM77 °FClear.3 mph82%29.99 "Hg10 mi
12:58 AM78 °FClear.5 mph80%29.99 "Hg10 mi
11:58 PM
Aug 26
78 °FClear.2 mph83%30.00 "Hg10 mi
10:58 PM80 °FClear.2 mph77%30.00 "Hg10 mi
9:58 PM79 °FPassing clouds.No wind82%30.02 "Hg10 mi
8:58 PM82 °FOvercast.3 mph78%30.01 "Hg10 mi
7:58 PM84 °FPassing clouds.No wind68%29.99 "Hg10 mi
6:58 PM84 °FScattered clouds.5 mph66%29.97 "Hg10 mi
5:58 PM87 °FScattered clouds.8 mph66%29.97 "Hg10 mi
4:58 PM88 °FScattered clouds.10 mph63%29.96 "Hg10 mi
3:58 PM90 °FScattered clouds.5 mph53%29.96 "Hg10 mi
2:58 PM91 °FSunny.8 mph52%29.97 "Hg10 mi
1:58 PM90 °FPassing clouds.7 mph55%29.99 "Hg10 mi
12:58 PM89 °FSunny.8 mph57%30.01 "Hg10 mi
11:58 AM87 °FSunny.7 mph60%30.02 "Hg10 mi
10:58 AM85 °FSunny.9 mph65%30.02 "Hg10 mi
Weather by CustomWeather, © 2014

See weather overviewHow to use our weather pages